• In Uzbekistan
  • List of Countries
  • For 7 days
  • Water Temperature
  • Satellite Maps
  • Weather Map
  • Weather Widgets
  • user-avatar
    Login

    Hourly Weather Mendoza

    Today, 21 July, Friday

    Time Temperature Precipitation Wind Pressure Humidity
    00:00 +13°C° 0 mm 2 mps 701 mmHg 23%
    01:00 +12°C° 0 mm 2 mps 701 mmHg 24%
    02:00 +12°C° 0 mm 2 mps 700 mmHg 26%
    03:00 +10°C° 0 mm 2 mps 700 mmHg 27%
    04:00 +10°C° 0 mm 2 mps 700 mmHg 29%
    05:00 +10°C° 0 mm 2 mps 700 mmHg 30%
    06:00 +10°C° 0 mm 2 mps 700 mmHg 31%
    07:00 +9°C° 0 mm 2 mps 700 mmHg 31%
    08:00 +13°C° 0 mm 1 mps 701 mmHg 27%
    09:00 +15°C° 0 mm 1 mps 701 mmHg 23%
    10:00 +18°C° 0 mm 1 mps 701 mmHg 19%
    11:00 +18°C° 0 mm 2 mps 701 mmHg 18%
    12:00 +19°C° 0 mm 2 mps 700 mmHg 17%
    13:00 +20°C° 0 mm 3 mps 699 mmHg 16%
    14:00 +20°C° 0 mm 3 mps 699 mmHg 17%
    15:00 +20°C° 0 mm 3 mps 698 mmHg 17%
    16:00 +20°C° 0 mm 3 mps 698 mmHg 18%
    17:00 +18°C° 0 mm 3 mps 698 mmHg 20%
    18:00 +17°C° 0 mm 2 mps 698 mmHg 22%
    19:00 +15°C° 0 mm 2 mps 698 mmHg 24%
    20:00 +15°C° 0 mm 2 mps 698 mmHg 23%
    21:00 +14°C° 0 mm 2 mps 697 mmHg 23%
    22:00 +14°C° 0 mm 2 mps 697 mmHg 22%
    23:00 +13°C° 0 mm 2 mps 697 mmHg 22%

    Tomorrow, 22 July, Saturday

    Time Temperature Precipitation Wind Pressure Humidity
    00:00 +13°C° 0 mm 2 mps 696 mmHg 22%
    01:00 +12°C° 0 mm 2 mps 696 mmHg 22%
    02:00 +12°C° 0 mm 2 mps 695 mmHg 22%
    03:00 +10°C° 0 mm 2 mps 695 mmHg 23%
    04:00 +10°C° 0 mm 2 mps 694 mmHg 23%
    05:00 +10°C° 0 mm 3 mps 694 mmHg 24%
    06:00 +9°C° 0 mm 3 mps 694 mmHg 24%
    07:00 +9°C° 0 mm 3 mps 694 mmHg 25%
    08:00 +12°C° 0 mm 3 mps 694 mmHg 23%
    09:00 +14°C° 0 mm 3 mps 695 mmHg 20%
    10:00 +18°C° 0 mm 3 mps 695 mmHg 18%
    11:00 +19°C° 0 mm 3 mps 694 mmHg 17%
    12:00 +20°C° 0 mm 3 mps 693 mmHg 16%
    13:00 +21°C° 0 mm 3 mps 693 mmHg 15%
    14:00 +21°C° 0 mm 3 mps 693 mmHg 15%
    15:00 +20°C° 0 mm 3 mps 692 mmHg 15%
    16:00 +20°C° 0 mm 2 mps 692 mmHg 16%
    17:00 +18°C° 0 mm 3 mps 693 mmHg 17%
    18:00 +17°C° 0 mm 3 mps 693 mmHg 18%
    19:00 +14°C° 0 mm 3 mps 693 mmHg 19%
    20:00 +14°C° 0 mm 3 mps 693 mmHg 19%
    21:00 +14°C° 0 mm 3 mps 694 mmHg 19%
    22:00 +13°C° 0 mm 3 mps 694 mmHg 20%
    23:00 +13°C° 0 mm 3 mps 694 mmHg 20%

    Day after tomorrow, 23 July, Sunday

    Time Temperature Precipitation Wind Pressure Humidity
    00:00 +13°C° 0 mm 3 mps 694 mmHg 21%
    01:00 +12°C° 0 mm 4 mps 694 mmHg 21%
    02:00 +12°C° 0 mm 4 mps 694 mmHg 22%
    03:00 +12°C° 0 mm 4 mps 694 mmHg 23%
    04:00 +12°C° 0 mm 4 mps 694 mmHg 24%
    05:00 +12°C° 0 mm 4 mps 694 mmHg 27%
    06:00 +11°C° 0 mm 4 mps 695 mmHg 30%
    07:00 +11°C° 0 mm 4 mps 695 mmHg 33%
    08:00 +13°C° 0 mm 5 mps 695 mmHg 32%
    09:00 +15°C° 0 mm 6 mps 696 mmHg 31%
    10:00 +16°C° 0 mm 6 mps 696 mmHg 30%
    11:00 +16°C° 0.1 mm 7 mps 696 mmHg 33%
    12:00 +16°C° 0.1 mm 7 mps 696 mmHg 36%
    13:00 +16°C° 0.1 mm 7 mps 695 mmHg 38%
    14:00 +15°C° 0.1 mm 7 mps 695 mmHg 40%
    15:00 +15°C° 0.1 mm 6 mps 695 mmHg 43%
    16:00 +14°C° 0.1 mm 6 mps 695 mmHg 45%
    17:00 +13°C° 0.1 mm 5 mps 696 mmHg 47%
    18:00 +12°C° 0.1 mm 5 mps 697 mmHg 48%
    19:00 +11°C° 0.1 mm 4 mps 697 mmHg 50%
    20:00 +11°C° 0.1 mm 4 mps 698 mmHg 51%
    21:00 +10°C° 0.1 mm 4 mps 698 mmHg 51%
    22:00 +8°C° 0.1 mm 4 mps 699 mmHg 52%
    23:00 +8°C° 0 mm 4 mps 698 mmHg 52%

    24 July, Monday

    Time Temperature Precipitation Wind Pressure Humidity
    00:00 +7°C° 0 mm 4 mps 698 mmHg 53%
    01:00 +7°C° 0 mm 4 mps 698 mmHg 53%
    02:00 +6°C° 0 mm 4 mps 698 mmHg 53%
    03:00 +6°C° 0 mm 4 mps 698 mmHg 53%
    04:00 +6°C° 0 mm 4 mps 698 mmHg 52%
    05:00 +6°C° 0 mm 4 mps 698 mmHg 52%
    06:00 +7°C° 0 mm 3 mps 698 mmHg 52%
    07:00 +7°C° 0 mm 3 mps 699 mmHg 51%
    08:00 +8°C° 0 mm 3 mps 699 mmHg 47%
    09:00 +10°C° 0 mm 4 mps 699 mmHg 42%
    10:00 +11°C° 0 mm 4 mps 699 mmHg 37%
    11:00 +12°C° 0 mm 4 mps 699 mmHg 36%
    12:00 +13°C° 0 mm 4 mps 699 mmHg 35%
    13:00 +14°C° 0 mm 4 mps 698 mmHg 34%
    14:00 +14°C° 0 mm 4 mps 698 mmHg 36%
    15:00 +14°C° 0 mm 4 mps 698 mmHg 37%
    16:00 +13°C° 0 mm 3 mps 698 mmHg 38%
    17:00 +12°C° 0 mm 3 mps 699 mmHg 41%
    18:00 +11°C° 0 mm 3 mps 700 mmHg 45%
    19:00 +10°C° 0 mm 3 mps 700 mmHg 48%
    20:00 +10°C° 0 mm 3 mps 700 mmHg 49%
    21:00 +9°C° 0 mm 3 mps 701 mmHg 50%
    22:00 +9°C° 0 mm 3 mps 701 mmHg 51%
    23:00 +8°C° 0 mm 3 mps 701 mmHg 52%

    25 July, Tuesday

    Time Temperature Precipitation Wind Pressure Humidity
    00:00 +8°C° 0 mm 3 mps 700 mmHg 52%
    01:00 +8°C° 0 mm 3 mps 700 mmHg 52%
    02:00 +7°C° 0 mm 3 mps 700 mmHg 53%
    03:00 +7°C° 0 mm 3 mps 700 mmHg 53%
    04:00 +7°C° 0 mm 3 mps 700 mmHg 54%
    05:00 +7°C° 0 mm 3 mps 700 mmHg 53%
    06:00 +7°C° 0 mm 3 mps 700 mmHg 53%
    07:00 +7°C° 0 mm 3 mps 700 mmHg 52%
    08:00 +9°C° 0 mm 3 mps 700 mmHg 49%
    09:00 +10°C° 0 mm 2 mps 700 mmHg 46%
    10:00 +13°C° 0 mm 2 mps 700 mmHg 43%
    11:00 +14°C° 0 mm 2 mps 700 mmHg 42%
    12:00 +15°C° 0 mm 2 mps 699 mmHg 40%
    13:00 +16°C° 0 mm 2 mps 699 mmHg 39%
    14:00 +16°C° 0 mm 2 mps 699 mmHg 40%
    15:00 +16°C° 0 mm 2 mps 699 mmHg 40%
    16:00 +15°C° 0 mm 2 mps 699 mmHg 41%
    17:00 +14°C° 0 mm 2 mps 699 mmHg 43%
    18:00 +13°C° 0 mm 2 mps 699 mmHg 46%
    19:00 +12°C° 0 mm 2 mps 699 mmHg 48%
    20:00 +12°C° 0 mm 2 mps 699 mmHg 49%
    21:00 +12°C° 0 mm 2 mps 699 mmHg 49%
    22:00 +10°C° 0 mm 2 mps 699 mmHg 50%
    23:00 +10°C° 0 mm 2 mps 698 mmHg 51%

    26 July, Wednesday

    Time Temperature Precipitation Wind Pressure Humidity
    00:00 +10°C° 0 mm 2 mps 698 mmHg 52%
    01:00 +9°C° 0 mm 2 mps 697 mmHg 53%
    02:00 +9°C° 0 mm 2 mps 697 mmHg 54%
    03:00 +9°C° 0 mm 2 mps 696 mmHg 55%
    04:00 +8°C° 0 mm 2 mps 696 mmHg 56%
    05:00 +8°C° 0 mm 2 mps 696 mmHg 56%
    06:00 +8°C° 0 mm 2 mps 696 mmHg 55%
    07:00 +8°C° 0 mm 2 mps 696 mmHg 55%
    08:00 +10°C° 0 mm 2 mps 697 mmHg 51%
    09:00 +13°C° 0 mm 2 mps 697 mmHg 47%
    10:00 +15°C° 0 mm 2 mps 697 mmHg 43%
    11:00 +16°C° 0 mm 2 mps 696 mmHg 41%
    12:00 +17°C° 0 mm 3 mps 696 mmHg 38%
    13:00 +18°C° 0 mm 3 mps 696 mmHg 36%
    14:00 +18°C° 0 mm 3 mps 696 mmHg 35%
    15:00 +18°C° 0 mm 2 mps 696 mmHg 35%
    16:00 +18°C° 0 mm 2 mps 696 mmHg 35%
    17:00 +16°C° 0 mm 2 mps 696 mmHg 37%
    18:00 +15°C° 0 mm 2 mps 696 mmHg 39%
    19:00 +14°C° 0 mm 2 mps 697 mmHg 41%
    20:00 +13°C° 0 mm 2 mps 697 mmHg 40%
    21:00 +13°C° 0 mm 2 mps 697 mmHg 39%
    22:00 +12°C° 0 mm 3 mps 697 mmHg 38%
    23:00 +12°C° 0 mm 3 mps 697 mmHg 38%
    Show more